Preview of NWS' New Version of Forecast
This preview is not operational and should not be used for support decisions.

Regional Weather Roundup (RWR)

Issued by National Weather Service (NWS)

                            
000
ASPQ40 PGUM 172310
RWRPQ 
WEATHER ROUNDUP FOR THE MARIANAS AND MICRONESIA
NATIONAL WEATHER SERVICE TIYAN GU
900 AM CHST MON FEB 18 2019

GUZ001>004-180000-
MARIANA ISLANDS-
  
CITY           SKY/WX    TMP DP  RH WIND       PRES   REMARKS
GUAM AIRPORT   PTSUNNY   81  70  69 NE21      30.05R                  
ANDERSEN AFB   MOSUNNY   79  64  61 NE18G29   30.04R                  
ROTA AIRPORT   MOSUNNY   77  64  65 NE16      30.03R                  
TINIAN AP      MOSUNNY  N/A N/A N/A E21       30.04R                  
SAIPAN AP      MOSUNNY   82  64  54 NE23G30   30.05R                  

$$

PMZ161-180000-
REPUBLIC OF PALAU-
  
CITY           SKY/WX    TMP DP  RH WIND       PRES   REMARKS
KOROR AP       CLOUDY    81  73  78 NE12G18   29.94R                  
KOROR WSO      NOT AVBL                                               

$$

PMZ171>174-180000-
FEDERATED STATES OF MICRONESIA-
  
CITY           SKY/WX    TMP DP  RH WIND       PRES   REMARKS
YAP AIRPORT    MOSUNNY   82  70  65 NE14      29.97R                  
CHUUK AP       CLOUDY    84  75  74 NE12      29.88R HX  92           
POHNPEI AP     CLOUDY    82  77  83 E10       29.83R HX  91           
POHNPEI WSO    CLOUDY    82  75  78 NE9G23    29.87S                  
KOSRAE AP      RAIN      79  77  94 NE21      29.78R                  

$$

PMZ181-180000-
REPUBLIC OF THE MARSHALL ISLANDS-
  
CITY           SKY/WX    TMP DP  RH WIND       PRES   REMARKS
KWAJALEIN AP   RAIN      81  77  89 SE15      29.86S                  
MAJURO AP      PTSUNNY   84  77  79 NE21      29.83R HX  94           
MAJURO WSO     PTSUNNY   86  77  74 E9G23     29.81  HX  97           

$$